Location: Newark
(40.7360°N, 74.1730°W)
Time: 21:32:48
(UTC-05:00)

ISS - All Passes

Search period start: 04 March 2015 00:00
Search period end: 14 March 2015 01:00
Orbit: 394 x 406 km, 51.6° (Epoch: 04 March)

Date Brightness Start Highest point End Pass type
(mag) Time Alt. Az. Time Alt. Az. Time Alt. Az.
04 Mar - 08:16:58 10° SW 08:20:11 79° SE 08:23:24 10° NE daylight
04 Mar - 09:54:27 10° WNW 09:56:54 19° NNW 09:59:20 10° NNE daylight
04 Mar - 11:32:54 10° NNW 11:34:14 12° N 11:35:33 10° NNE daylight
04 Mar - 13:09:03 10° NNW 13:11:33 20° NNE 13:14:03 10° ENE daylight
04 Mar - 14:45:01 10° WNW 14:48:14 72° SW 14:51:26 10° SE daylight
05 Mar - 07:23:39 10° SSW 07:26:39 37° SE 07:29:40 10° ENE daylight
05 Mar - 09:00:15 10° W 09:03:05 28° NNW 09:05:56 10° NE daylight
05 Mar - 10:38:47 10° NNW 10:40:17 12° N 10:41:46 10° NNE daylight
05 Mar - 12:15:38 10° NNW 12:17:40 16° NNE 12:19:43 10° NE daylight
05 Mar - 13:51:24 10° NW 13:54:35 57° NNE 13:57:46 10° ESE daylight
05 Mar - 15:28:43 10° W 15:30:41 15° SW 15:32:34 10° SSW daylight
06 Mar - 06:30:44 10° S 06:33:03 19° SE 06:35:26 10° E daylight
06 Mar - 08:06:05 10° WSW 08:09:12 46° NNW 08:12:20 10° NE daylight
06 Mar - 09:44:18 10° NW 09:46:12 14° NNW 09:48:05 10° NNE daylight
06 Mar - 11:22:00 10° NNW 11:23:36 13° N 11:25:12 10° NE daylight
06 Mar - 12:57:46 10° NW 13:00:43 32° NNE 13:03:40 10° E daylight
06 Mar - 14:34:12 10° WNW 14:37:03 29° SW 14:39:53 10° SSE daylight
07 Mar - 07:12:04 10° SW 07:15:17 90° W 07:18:31 10° NE daylight
07 Mar - 08:49:40 10° WNW 08:52:02 18° NNW 08:54:23 10° NNE daylight
07 Mar - 10:28:00 10° NNW 10:29:21 12° N 10:30:42 10° NNE daylight
07 Mar - 12:04:04 10° NNW 12:06:38 22° NNE 12:09:12 10° ENE daylight
07 Mar - 13:40:02 10° WNW 13:43:14 62° SW 13:46:24 10° SE daylight
08 Mar - 07:18:15 10° SSW 07:21:19 42° SE 07:24:24 10° ENE daylight
08 Mar - 08:55:00 10° W 08:57:47 26° NNW 09:00:34 10° NE daylight
08 Mar - 10:33:32 10° NNW 10:34:58 12° N 10:36:25 10° NNE daylight
08 Mar - 12:10:13 10° NNW 12:12:19 16° NNE 12:14:28 10° ENE daylight
08 Mar - 13:45:59 10° NW 13:49:10 64° NNE 13:52:22 10° ESE daylight
08 Mar - 15:23:32 10° W 15:25:12 13° SW 15:26:47 10° SSW daylight
09 Mar - 06:24:48 10° S 06:27:17 21° SE 06:29:50 10° E visible
09 Mar - 08:00:23 10° WSW 08:03:28 42° NNW 08:06:34 10° NE daylight
09 Mar - 09:38:39 10° NW 09:40:28 14° NNW 09:42:17 10° NNE daylight
09 Mar - 11:16:11 10° NNW 11:17:50 13° N 11:19:31 10° NE daylight
09 Mar - 12:51:54 10° NW 12:54:54 35° NNE 12:57:54 10° E daylight
09 Mar - 14:28:24 10° WNW 14:31:10 26° SW 14:33:54 10° SSE daylight
10 Mar - 05:32:39 10° SE 05:33:11 10° SE 05:33:50 10° ESE visible
10 Mar - 07:05:54 10° SW 07:09:07 82° NW 07:12:21 10° NE daylight
10 Mar - 08:43:34 10° WNW 08:45:52 18° NNW 08:48:09 10° NNE daylight
10 Mar - 10:21:49 10° NNW 10:23:10 12° N 10:24:33 10° NNE daylight
10 Mar - 11:57:46 10° NNW 12:00:24 23° NNE 12:03:03 10° ENE daylight
10 Mar - 13:33:46 10° WNW 13:36:56 55° SW 13:40:04 10° SE daylight
11 Mar - 06:11:36 10° SSW 06:14:42 47° SE 06:17:50 10° ENE visible
11 Mar - 07:48:27 10° W 07:51:11 25° NNW 07:53:54 10° NE daylight
11 Mar - 09:26:58 10° NNW 09:28:22 12° N 09:29:46 10° NNE daylight
11 Mar - 11:03:30 10° NNW 11:05:41 17° NNE 11:07:53 10° ENE daylight
11 Mar - 12:39:16 10° NW 12:42:29 70° NE 12:45:40 10° ESE daylight
11 Mar - 14:17:03 10° WSW 14:18:26 12° SW 14:19:43 10° SSW daylight
12 Mar - 05:17:40 10° S 05:20:15 23° SE 05:22:53 10° E visible
12 Mar - 06:53:22 10° WSW 06:56:26 39° NNW 06:59:30 10° NE daylight
12 Mar - 08:31:39 10° NW 08:33:26 14° N 08:35:11 10° NNE daylight
12 Mar - 10:09:04 10° NNW 10:10:46 14° N 10:12:30 10° NE daylight
12 Mar - 11:44:45 10° NW 11:47:47 37° NNE 11:50:48 10° E daylight
12 Mar - 13:21:18 10° WNW 13:23:59 24° SW 13:26:38 10° S daylight
13 Mar - 04:24:44 10° SSE 04:25:43 11° SE 04:26:50 10° ESE visible
13 Mar - 05:58:26 10° WSW 06:01:39 76° NW 06:04:52 10° NE visible
13 Mar - 07:36:08 10° WNW 07:38:24 17° NNW 07:40:37 10° NNE daylight
13 Mar - 09:14:18 10° NNW 09:15:41 12° N 09:17:05 10° NNE daylight
13 Mar - 10:50:11 10° NNW 10:52:52 24° NNE 10:55:33 10° E daylight
13 Mar - 12:26:12 10° WNW 12:29:20 51° SW 12:32:27 10° SE daylight
